Location: Ku?niki
(51.4449°N, 17.8974°E)
Time: 01:42:08
(UTC+00:00)

ZACube-1 - Pass Details

Date: 03 July 2022
Orbit: 582 x 661 km, 97.6° (Epoch: 07 August)

Event Time Altitude Azimuth Distance (km) Brightness Sun altitude
Rises 01:09:35 0° 33° (NNE) 2,958 ? -9.7°
Reaches altitude 10° 01:14:16 10° 78° (ENE) 2,061 ? -9.4°
Maximum altitude 01:14:44 10° 84° (E) 2,052 ? -9.3°
Drops below altitude 10° 01:15:12 10° 90° (E) 2,062 ? -9.3°
Sets 01:19:54 0° 135° (SE) 2,979 ? -8.9°
